This is the latest recevied weather packets stored in our database for station/object G4KVI. If no packets are shown the sender has not sent any weather packets the latest 10 day(s).
| Time | Temp. | Humidity | Pressure | Rain* | Wind** | Luminosity | Snow |
|---|---|---|---|---|---|---|---|
| 1787401204 | 19.44° C | 46% | 1025.9 hPa | 0 mm | - | 443 W/m² | - |
| 1787400904 | 18.89° C | 49% | 1026 hPa | 0 mm | - | 809 W/m² | - |
| 1787400604 | 18.89° C | 49% | 1025.8 hPa | 0 mm | - | 226 W/m² | - |
| 1787400304 | 19.44° C | 49% | 1025.9 hPa | 0 mm | - | 213 W/m² | - |
| 1787400004 | 19.44° C | 49% | 1026 hPa | 0 mm | - | 210 W/m² | - |
| 1787399704 | 19.44° C | 47% | 1026 hPa | 0 mm | - | 398 W/m² | - |
| 1787399404 | 18.89° C | 50% | 1026.1 hPa | 0 mm | - | 834 W/m² | - |
| 1787399104 | 18.89° C | 48% | 1025.8 hPa | 0 mm | - | 223 W/m² | - |
| 1787398804 | 19.44° C | 49% | 1026 hPa | 0 mm | - | 225 W/m² | - |
| 1787398504 | 18.89° C | 50% | 1026 hPa | 0 mm | - | 212 W/m² | - |
| 1787398204 | 18.89° C | 49% | 1026 hPa | 0 mm | - | 189 W/m² | - |
| 1787397904 | 18.89° C | 48% | 1026.3 hPa | 0 mm | - | 169 W/m² | - |
| 1787397604 | 19.44° C | 46% | 1026 hPa | 0 mm | - | 334 W/m² | - |
| 1787397304 | 19.44° C | 47% | 1025.9 hPa | 0 mm | - | 744 W/m² | - |
| 1787397004 | 19.44° C | 48% | 1025.8 hPa | 0 mm | - | 765 W/m² | - |
| 1787396704 | 19.44° C | 49% | 1025.9 hPa | 0 mm | - | 756 W/m² | - |
| 1787396404 | 18.89° C | 50% | 1026 hPa | 0 mm | - | 248 W/m² | - |
| 1787396104 | 18.89° C | 51% | 1025.8 hPa | 0 mm | - | 738 W/m² | - |
| 1787395804 | 18.33° C | 51% | 1026 hPa | 0 mm | - | 595 W/m² | - |
| 1787395504 | 18.33° C | 52% | 1025.9 hPa | 0 mm | - | 362 W/m² | - |
| 1787395204 | 18.33° C | 53% | 1025.9 hPa | 0 mm | - | 576 W/m² | - |
| 1787394904 | 18.33° C | 53% | 1026 hPa | 0 mm | - | 681 W/m² | - |
| 1787394604 | 18.89° C | 52% | 1026 hPa | 0 mm | - | 650 W/m² | - |
| 1787394304 | 18.33° C | 53% | 1026.1 hPa | 0 mm | - | 643 W/m² | - |
| 1787394004 | 18.33° C | 53% | 1026.2 hPa | 0 mm | - | 621 W/m² | - |
* Rain latest hour (hover to see other rain measurements)
** Current wind speed in m/s (hover to see current wind gust speed)